Погода в Кубине

Россия / Карачаево-Черкесская Республика     44°04′06″N   41°57′16″E
В апреле 2022 года жителям России запретили посещать сайт meteo.paraplan.net по решению Генеральной прокуратуры. Аудитория сайта уменьшилась в 10 раз. Владельцы сайта не видят смысла в поддержке погодного сервера в таких условиях. Сайт будет закрыт в октябре.
темп.,
°C
ветер,
м/с
пор.,
м/с
влажн.,
%
обл.,
%
осадки,
мм/ч
давл.,
гПа
погр.,
м
4 октября, вт
вт400:00+9в119494 0.0 101412
03:00+9ю1194100 0.0 101410
06:00+11ююв2287100 0.3 101230
09:00+14ссв017597 0.3 1013258
12:00+16с327066 0.3 1014810
15:00+14с2281100 1.6 1016370
18:00+11с3499100 2.5 1018157
21:00+12зюз1197100 6.9 101992
5 октября, ср
ср500:00+10зсз1198100 0.4 102013
03:00+11всв1197100 0.4 102074
06:00+11в229540 0.0 101939
09:00+13зсз2289100 0.1 1021451
12:00+10св2397100 4.6 1024247
15:00+10с2295100 9.8 1025255
18:00+10св2299100 6.3 1024112
21:00+10св2399100 17.3 1025170
6 октября, чт
чт600:00+10ссв11100100 0.9 1025112
03:00+10с1198100 2.3 1025109
06:00+10с1199100 1.4 1024156
09:00+10ссв2299100 1.9 1024278
12:00+11с2197100 0.3 1024292
15:00+11ссв1198100 0.4 1024213
18:00+10св1198100 0.1 102471
21:00+10ссв1199100 0.1 102490
7 октября, пт
пт700:00+10с1199100 0.0 102584
03:00+10в119878 0.1 102454
06:00+10всв119284 0.0 102433
09:00+12св228582 0.0 1023473
12:00+14с227689 0.0 1022669
15:00+14с227795 0.0 1021604
18:00+11ссв129044 0.0 102170
21:00+9в22930 0.0 102116
8 октября, сб
сб800:00+9в11925 0.0 102016
03:00+9в11905 0.0 101815
06:00+8в228913 0.0 101719
09:00+13св23739 0.0 1016237
12:00+18ссв33595 0.0 1013459
15:00+18с2264100 0.0 1012419
18:00+12всв22909 0.1 101516
21:00+11юв1188100 0.1 101511